• en Belgique
  • Liste des pays
  • À 7 jours
  • Température de l'eau
  • Carte satellitaire
  • Carte météo
  • Widgets météo
  • user-avatar
    Se connecter

    Météo par heure à Kosani

    Ce jour, 25 Février, Dimanche

    Heure Température Précipitation Vent Pression Humidité
    00:00 +4°C° 0,1 mm 1 m/s 697 mmHg 91%
    01:00 +2°C° 0 mm 2 m/s 697 mmHg 90%
    02:00 +3°C° 0,1 mm 1 m/s 697 mmHg 90%
    03:00 +3°C° 0,1 mm 1 m/s 698 mmHg 90%
    04:00 +3°C° 0,1 mm 1 m/s 698 mmHg 90%
    05:00 +2°C° 0,2 mm 1 m/s 698 mmHg 90%
    06:00 +2°C° 0,2 mm 1 m/s 698 mmHg 89%
    07:00 +3°C° 0 mm 1 m/s 698 mmHg 91%
    08:00 +3°C° 0,5 mm 2 m/s 698 mmHg 89%
    09:00 +3°C° 0,5 mm 2 m/s 698 mmHg 88%
    10:00 +4°C° 0,5 mm 2 m/s 698 mmHg 86%
    11:00 +4°C° 1 mm 2 m/s 698 mmHg 86%
    12:00 +3°C° 1 mm 3 m/s 697 mmHg 87%
    13:00 +3°C° 0 mm 2 m/s 697 mmHg 86%
    14:00 +3°C° 1 mm 2 m/s 697 mmHg 88%
    15:00 +3°C° 1 mm 2 m/s 697 mmHg 89%
    16:00 +2°C° 1 mm 2 m/s 697 mmHg 90%
    17:00 +2°C° 1,1 mm 2 m/s 696 mmHg 91%
    18:00 +2°C° 1,1 mm 2 m/s 696 mmHg 92%
    19:00 +1°C° 1,1 mm 2 m/s 696 mmHg 93%
    20:00 0°C° 1,5 mm 3 m/s 695 mmHg 94%
    21:00 0°C° 1,5 mm 3 m/s 695 mmHg 95%
    22:00 0°C° 1,5 mm 3 m/s 694 mmHg 95%
    23:00 0°C° 2 mm 3 m/s 694 mmHg 96%

    Demain, 26 Février, Lundi

    Heure Température Précipitation Vent Pression Humidité
    00:00 0°C° 2 mm 3 m/s 693 mmHg 96%
    01:00 0°C° 2 mm 3 m/s 692 mmHg 96%
    02:00 -1°C° 1,7 mm 4 m/s 691 mmHg 96%
    03:00 -1°C° 1,7 mm 4 m/s 691 mmHg 96%
    04:00 -1°C° 1,7 mm 4 m/s 690 mmHg 95%
    05:00 -1°C° 3,5 mm 4 m/s 690 mmHg 95%
    06:00 -2°C° 3,5 mm 4 m/s 690 mmHg 95%
    07:00 -2°C° 3,5 mm 4 m/s 689 mmHg 95%
    08:00 -2°C° 1,6 mm 4 m/s 689 mmHg 95%
    09:00 -2°C° 1,6 mm 4 m/s 689 mmHg 95%
    10:00 0°C° 1,6 mm 3 m/s 689 mmHg 95%
    11:00 0°C° 0,3 mm 3 m/s 689 mmHg 95%
    12:00 0°C° 0,3 mm 3 m/s 690 mmHg 95%
    13:00 +2°C° 0,3 mm 2 m/s 690 mmHg 96%
    14:00 +2°C° 0,4 mm 2 m/s 690 mmHg 95%
    15:00 +2°C° 0,4 mm 2 m/s 691 mmHg 95%
    16:00 +3°C° 0,4 mm 1 m/s 691 mmHg 95%
    17:00 +2°C° 0,3 mm 1 m/s 691 mmHg 95%
    18:00 +2°C° 0,3 mm 1 m/s 691 mmHg 94%
    19:00 +1°C° 0,3 mm 1 m/s 691 mmHg 94%
    20:00 +1°C° 0,6 mm 1 m/s 691 mmHg 94%
    21:00 +1°C° 0,6 mm 1 m/s 691 mmHg 94%
    22:00 +1°C° 0,6 mm 1 m/s 691 mmHg 95%
    23:00 +1°C° 0,5 mm 1 m/s 692 mmHg 95%

    Après-demain, 27 Février, Mardi

    Heure Température Précipitation Vent Pression Humidité
    00:00 +1°C° 0,5 mm 1 m/s 692 mmHg 95%
    01:00 -1°C° 0,5 mm 2 m/s 692 mmHg 95%
    02:00 +1°C° 0,2 mm 1 m/s 692 mmHg 95%
    03:00 0°C° 0,2 mm 1 m/s 692 mmHg 95%
    04:00 0°C° 0,2 mm 1 m/s 692 mmHg 95%
    05:00 0°C° 0,1 mm 1 m/s 692 mmHg 94%
    06:00 0°C° 0,1 mm 1 m/s 693 mmHg 94%
    07:00 -2°C° 0,1 mm 2 m/s 693 mmHg 93%
    08:00 -1°C° 0 mm 2 m/s 694 mmHg 93%
    09:00 +1°C° 0 mm 2 m/s 694 mmHg 93%
    10:00 +2°C° 0 mm 2 m/s 695 mmHg 92%
    11:00 +3°C° 0 mm 2 m/s 695 mmHg 90%
    12:00 +3°C° 0 mm 2 m/s 695 mmHg 89%
    13:00 +3°C° 0 mm 2 m/s 695 mmHg 87%
    14:00 +3°C° 0 mm 2 m/s 695 mmHg 86%
    15:00 +3°C° 0 mm 2 m/s 695 mmHg 84%
    16:00 +4°C° 0 mm 1 m/s 696 mmHg 83%
    17:00 +2°C° 0 mm 1 m/s 696 mmHg 83%
    18:00 +1°C° 0 mm 1 m/s 696 mmHg 83%
    19:00 0°C° 0 mm 1 m/s 696 mmHg 82%
    20:00 0°C° 0,1 mm 1 m/s 696 mmHg 83%
    21:00 0°C° 0,1 mm 1 m/s 697 mmHg 83%
    22:00 +1°C° 0,1 mm 1 m/s 697 mmHg 83%
    23:00 +1°C° 0,3 mm 1 m/s 697 mmHg 85%

    28 Février, Mercredi

    Heure Température Précipitation Vent Pression Humidité
    00:00 +1°C° 0,3 mm 1 m/s 697 mmHg 87%
    01:00 +1°C° 0,3 mm 1 m/s 696 mmHg 88%
    02:00 +1°C° 0,3 mm 1 m/s 696 mmHg 89%
    03:00 +1°C° 0,3 mm 1 m/s 696 mmHg 91%
    04:00 +1°C° 0,3 mm 1 m/s 695 mmHg 92%
    05:00 +1°C° 0,9 mm 1 m/s 695 mmHg 93%
    06:00 +1°C° 0,9 mm 1 m/s 695 mmHg 93%
    07:00 +1°C° 0,9 mm 1 m/s 695 mmHg 94%
    08:00 +2°C° 0,4 mm 1 m/s 695 mmHg 94%
    09:00 +2°C° 0,4 mm 1 m/s 695 mmHg 95%
    10:00 +3°C° 0,4 mm 1 m/s 696 mmHg 95%
    11:00 +4°C° 0,3 mm 1 m/s 696 mmHg 94%
    12:00 +4°C° 0,3 mm 1 m/s 696 mmHg 93%
    13:00 +5°C° 0,3 mm 1 m/s 696 mmHg 92%
    14:00 +3°C° 0,3 mm 2 m/s 697 mmHg 90%
    15:00 +2°C° 0,3 mm 3 m/s 698 mmHg 88%
    16:00 +2°C° 0,3 mm 3 m/s 698 mmHg 86%
    17:00 0°C° 0 mm 3 m/s 699 mmHg 86%
    18:00 -1°C° 0 mm 3 m/s 700 mmHg 86%
    19:00 -3°C° 0 mm 2 m/s 701 mmHg 86%
    20:00 -4°C° 0 mm 2 m/s 701 mmHg 86%
    21:00 -4°C° 0 mm 2 m/s 702 mmHg 85%
    22:00 -5°C° 0 mm 2 m/s 702 mmHg 85%
    23:00 -5°C° 0 mm 2 m/s 703 mmHg 84%

    1 Mars, Jeudi

    Heure Température Précipitation Vent Pression Humidité
    00:00 -5°C° 0 mm 2 m/s 703 mmHg 84%
    01:00 -6°C° 0 mm 2 m/s 703 mmHg 83%
    02:00 -6°C° 0 mm 2 m/s 703 mmHg 83%
    03:00 -4°C° 0 mm 1 m/s 703 mmHg 82%
    04:00 -4°C° 0 mm 1 m/s 703 mmHg 82%
    05:00 -4°C° 0 mm 1 m/s 703 mmHg 81%
    06:00 -3°C° 0 mm 1 m/s 704 mmHg 80%
    07:00 -3°C° 0 mm 1 m/s 704 mmHg 79%
    08:00 -1°C° 0 mm 1 m/s 704 mmHg 77%
    09:00 0°C° 0 mm 1 m/s 704 mmHg 75%
    10:00 +1°C° 0 mm 2 m/s 704 mmHg 73%
    11:00 +2°C° 0 mm 2 m/s 704 mmHg 75%
    12:00 +2°C° 0 mm 2 m/s 704 mmHg 77%
    13:00 +3°C° 0 mm 2 m/s 703 mmHg 79%
    14:00 +3°C° 0 mm 2 m/s 703 mmHg 80%
    15:00 +3°C° 0 mm 2 m/s 703 mmHg 82%
    16:00 +3°C° 0 mm 2 m/s 703 mmHg 84%
    17:00 +2°C° 0 mm 2 m/s 703 mmHg 86%
    18:00 +2°C° 0 mm 1 m/s 703 mmHg 88%
    19:00 +1°C° 0 mm 1 m/s 703 mmHg 90%
    20:00 +1°C° 0 mm 1 m/s 703 mmHg 91%
    21:00 +1°C° 0 mm 1 m/s 703 mmHg 91%
    22:00 +2°C° 0 mm 1 m/s 703 mmHg 91%
    23:00 +2°C° 0,1 mm 1 m/s 702 mmHg 92%

    2 Mars, Vendredi

    Heure Température Précipitation Vent Pression Humidité
    00:00 +2°C° 0,1 mm 1 m/s 702 mmHg 92%
    01:00 +2°C° 0,1 mm 1 m/s 702 mmHg 93%
    02:00 +2°C° 0,1 mm 1 m/s 701 mmHg 93%
    03:00 +2°C° 0,1 mm 1 m/s 701 mmHg 93%
    04:00 +2°C° 0,1 mm 1 m/s 700 mmHg 94%
    05:00 +3°C° 0,1 mm 1 m/s 700 mmHg 94%
    06:00 +3°C° 0,1 mm 1 m/s 700 mmHg 94%
    07:00 +3°C° 0,1 mm 1 m/s 700 mmHg 94%
    08:00 +4°C° 0,4 mm 1 m/s 700 mmHg 93%
    09:00 +5°C° 0,4 mm 1 m/s 700 mmHg 92%
    10:00 +5°C° 0,4 mm 1 m/s 699 mmHg 92%
    11:00 +5°C° 0,3 mm 2 m/s 699 mmHg 91%
    12:00 +5°C° 0,3 mm 2 m/s 699 mmHg 91%
    13:00 +6°C° 0,3 mm 2 m/s 698 mmHg 91%
    14:00 +6°C° 0,2 mm 2 m/s 698 mmHg 91%
    15:00 +6°C° 0,2 mm 2 m/s 698 mmHg 92%
    16:00 +7°C° 0,2 mm 1 m/s 697 mmHg 93%
    17:00 +6°C° 0,1 mm 1 m/s 697 mmHg 94%
    18:00 +6°C° 0,1 mm 1 m/s 698 mmHg 95%
    19:00 +5°C° 0,1 mm 1 m/s 698 mmHg 95%
    20:00 +5°C° 0,2 mm 1 m/s 698 mmHg 96%
    21:00 +5°C° 0,2 mm 1 m/s 698 mmHg 96%
    22:00 +5°C° 0,2 mm 1 m/s 698 mmHg 96%
    23:00 +5°C° 0,3 mm 1 m/s 698 mmHg 96%
    Voir plus